Weather Roundup
Issued by NWS Springfield, MO

Home | Current Version | Previous Version | Text Only | Print | Product List | Glossary On
Versions: 1 2 3 4 5 6 7 8 9 10 11 12 13 14 15 16 17 18 19 20 21 22 23 24 25 26 27 28 29 30 31 32 33 34 35 36 37 38 39 40 41 42 43 44 45 46 47 48 49 50
000
NZUS99 KSGF 161807
HRRSGF

HOURLY WEATHER
NATIONAL WEATHER SERVICE SPRINGFIELD MO
100 PM CDT MON OCT 16 2017

......SGF CWA......

CITY           SKY/WX    TMP DP  RH WIND       PRES   REMARKS
SPRINGFIELD    SUNNY     65  34  31 N8        30.40F
6HR MIN TEMP:  38; 6HR MAX TEMP:  66;

JOPLIN         SUNNY     63  37  38 CALM      30.42F
6HR MIN TEMP:  38; 6HR MAX TEMP:  64;

WEST PLAINS    SUNNY     64  33  31 E8        30.41F
6HR MIN TEMP:  40; 6HR MAX TEMP:  66;

ROLLA          SUNNY     61  32  33 VRB3      30.40F
6HR MIN TEMP:  39; 6HR MAX TEMP:  63;

OSAGE BEACH    SUNNY     63  38  39 VRB5      30.40F
BRANSON        SUNNY     63  34  34 E6        30.42F

......SURROUNDING SGF CWA......

CITY           SKY/WX    TMP DP  RH WIND       PRES   REMARKS
CHANUTE        SUNNY     64  40  41 S7        30.41F
PARSONS        LGT RAIN  64  39  39 SW6       30.43F
COFFEYVILLE    SUNNY     65  40  39 S6        30.42F
EMPORIA        SUNNY     67  38  34 S10       30.37F
GROVE OK       SUNNY     64  39  39 CALM      30.43F
ROGERS AR      SUNNY     63  37  38 E10       30.41F
SILOAM SPRINGS SUNNY     64  36  35 VRB6      30.42F
HARRISON AR    SUNNY     63  33  32 E10       30.41F
NEAR YELLVILLE SUNNY     65  36  34 N7        30.41F

......KANSAS AND MISSOURI......

CITY           SKY/WX    TMP DP  RH WIND       PRES   REMARKS
KANSAS CTY INT SUNNY     66  39  37 SW12      30.36F
DOWNTOWN KC    SUNNY     67  41  38 SW7       30.36F
COLUMBIA       SUNNY     64  40  41 W9        30.38F
SEDALIA        SUNNY     66  42  41 SW9       30.39F
ST JOSEPH      SUNNY     69  39  33 S10       30.34F
ST LOUIS       MOSUNNY   63  37  38 CALM      30.38F
SPIRIT OF STL  SUNNY     63  40  42 S3        30.37F
KIRKSVILLE     SUNNY     65  40  39 W8        30.36F
WICHITA        SUNNY     66  42  41 S14       30.38F
TOPEKA         SUNNY     68  44  42 VRB7      30.35F
OLATHE         SUNNY     64  41  42 S8        30.38F

......TENNESSEE......

CITY           SKY/WX    TMP DP  RH WIND       PRES   REMARKS
MEMPHIS        SUNNY     64  40  41 N9        30.34F
NASHVILLE      MOSUNNY   65  41  41 N10G23    30.32F

......ARKANSAS.......

CITY           SKY/WX    TMP DP  RH WIND       PRES   REMARKS
FAYETTEVILLE   SUNNY     64  36  35 N8        30.41F
FT SMITH       SUNNY     66  42  41 NE8       30.40F
LITTLE ROCK    SUNNY     64  42  44 E5        30.39F

......OKLAHOMA.......

CITY           SKY/WX    TMP DP  RH WIND       PRES   REMARKS
TULSA          SUNNY     67  33  28 E6        30.41F
PONCA CITY     SUNNY     65  40  39 VRB6      30.41F
MCALESTER      MOSUNNY   67  41  38 E7        30.41F
OKLAHOMA CITY  SUNNY     65  33  30 SE8       30.42F

......IOWA............

CITY           SKY/WX    TMP DP  RH WIND       PRES   REMARKS
DES MOINES     SUNNY     66  37  34 W9G20     30.29F
QUAD CITIES    SUNNY     63  38  39 NW8       30.31F

......ILLINOIS........

CITY           SKY/WX    TMP DP  RH WIND       PRES   REMARKS
QUINCY         SUNNY     63  35  35 SW8       30.34F
CHICAGO        MOSUNNY   59  39  47 W12       30.28F



USA.gov is the U.S. government's official web portal to all federal, state and local government web resources and services.